Voltar ao catálogo

HULIANWANG DIGUI-12

AtivoComunicaçõesLEO
NORAD 62972·PAYLOAD·🇨🇳 China

Lançado Feb 11, 2025 de Wenchang Space Launch Site

Loading…

Próximas Passagens (próximas 24 horas)

TLE

AtualizadoSource: Space-Track

Época: Sep 14, 2026, 13:22 UTC

1 62972U 25030B   26257.55704433 -.00000095  00000-0  62103-4 0  9990
2 62972  50.0015 275.4179 0000476  40.7058 319.3850 13.29324745 77749

Acompanhe HULIANWANG DIGUI-12 em tempo real com AllMySat

Download on the App Store